This demonstration page uses our WeatherBlox Daily Observations layout. Learn more.

Hourly Observations for October 11, 2016

Temp ( °F °C ) Dew Point ( °F °C ) Humidity (%) Winds ( mph kmh ) Pressure ( in mb ) Visibility ( mi km ) Precip ( " mm )
12:15 am 00:15 Clear 57 13.7 50 10.2 80 80 S 8 13 29.91 1013 10 16.09344 0 0
12:35 am 00:35 Clear 57 13.7 51 10.5 81 81 S 9 15 29.91 1013 10 16.09344 0 0
12:55 am 00:55 Clear 57 14.1 51 10.5 79 79 S 9 15 29.91 1013 10 16.09344 0 0
1:15 am 01:15 Clear 56 13.6 51 10.3 81 81 S 9 15 29.91 1013 10 16.09344 0 0
1:35 am 01:35 Clear 56 13.5 51 10.4 82 82 S 9 15 29.91 1013 10 16.09344 0 0
1:55 am 01:55 Clear 56 13.3 51 10.4 83 83 S 9 15 29.88 1012 10 16.09344 0 0
2:15 am 02:15 Clear 56 13.5 51 10.7 83 83 S 9 15 29.88 1012 10 16.09344 0 0
2:35 am 02:35 Clear 55 13 51 10.5 85 85 S 8 13 29.88 1012 10 16.09344 0 0
2:55 am 02:55 Clear 55 12.7 51 10.5 87 87 S 9 15 29.88 1012 10 16.09344 0 0
3:15 am 03:15 Clear 54 12.4 51 10.4 88 88 S 10 17 29.88 1012 10 16.09344 0 0
3:35 am 03:35 Clear 55 12.6 51 10.5 87 87 SSW 9 15 29.88 1012 10 16.09344 0 0
3:55 am 03:55 Clear 55 12.9 51 10.7 87 87 SSW 10 17 29.88 1012 10 16.09344 0 0
4:15 am 04:15 Clear 55 13 51 10.8 87 87 SSW 9 15 29.88 1012 10 16.09344 0 0
4:35 am 04:35 Clear 55 12.5 51 10.6 88 88 SSW 6 9 29.88 1012 10 16.09344 0 0
4:55 am 04:55 Clear 55 12.5 51 10.7 89 89 SSW 7 11 29.88 1012 10 16.09344 0 0
5:15 am 05:15 Clear 54 12.4 51 10.5 88 88 S 8 13 29.88 1012 10 16.09344 0 0
5:35 am 05:35 Clear 54 12 50 10.2 89 89 S 6 9 29.88 1012 10 16.09344 0 0
5:55 am 05:55 Clear 53 11.9 50 10.2 89 89 S 5 7 29.88 1012 10 16.09344 0 0
6:15 am 06:15 Clear 52 11.1 49 9.5 90 90 Calm 29.91 1013 10 16.09344 0 0
6:35 am 06:35 Clear 48 9.1 47 8.1 94 94 Calm 29.91 1013 10 16.09344 0 0
6:55 am 06:55 Clear 50 9.8 48 8.8 94 94 NNW 7 11 29.94 1014 10 16.09344 0 0
7:15 am 07:15 Clear 49 9.2 47 8.4 95 95 Calm 29.94 1014 7 11.265408 0 0
7:35 am 07:35 Clear 46 7.6 44 6.7 94 94 NNE 3 6 29.97 1015 7 11.265408 0 0
7:55 am 07:55 Sunny with Mist and Fog 45 7.1 44 6.4 95 95 Calm 29.97 1015 5 8.04672 0 0
8:15 am 08:15 Sunny with Mist and Fog 46 8 45 7.3 95 95 Calm 29.97 1015 5 8.04672 0 0
8:35 am 08:35 Sunny with Mist and Fog 47 8.5 46 7.8 95 95 N 7 11 29.97 1015 5 8.04672 0 0
8:55 am 08:55 Sunny 51 10.3 48 9.1 92 92 N 10 17 29.97 1015 10 16.09344 0 0
9:15 am 09:15 Partly Cloudy 50 10.1 47 8.6 91 91 N 15 24 29.97 1015 10 16.09344 0 0
9:35 am 09:35 Cloudy 50 9.8 48 8.7 93 93 NNE 14 22 29.97 1015 10 16.09344 0 0
9:55 am 09:55 Cloudy 50 10.2 49 9.2 94 94 NNE 13 20 29.97 1015 10 16.09344 0 0
10:15 am 10:15 Cloudy 51 10.6 49 9.4 92 92 N 14 22 29.97 1015 10 16.09344 0 0
10:35 am 10:35 Cloudy 52 11 49 9.4 90 90 N 12 19 29.97 1015 10 16.09344 0 0
10:55 am 10:55 Cloudy 52 11.1 49 9.3 89 89 NNE 13 20 29.97 1015 10 16.09344 0 0
11:15 am 11:15 Cloudy 52 11.3 49 9.3 88 88 N 10 17 29.97 1015 10 16.09344 0 0
11:35 am 11:35 Cloudy 53 11.5 49 9.2 86 86 N 14 22 29.97 1015 10 16.09344 0 0
11:55 am 11:55 Cloudy 53 11.9 48 9.1 83 83 N 12 19 30 1016 10 16.09344 0 0
12:35 pm 12:35 Mostly Cloudy 56 13.1 48 9 76 76 NNE 15 24 29.94 1014 10 16.09344 0 0
12:55 pm 12:55 Mostly Cloudy 56 13.5 48 9.1 75 75 NNE 14 22 29.91 1013 10 16.09344 0 0
1:15 pm 13:15 Partly Cloudy 56 13.5 48 8.9 74 74 NNE 13 20 29.94 1014 10 16.09344 0 0
1:35 pm 13:35 Mostly Cloudy 55 13 47 8.2 73 73 N 8 13 29.94 1014 10 16.09344 0 0
1:55 pm 13:55 Mostly Cloudy 56 13.3 46 8 71 71 N 6 9 29.94 1014 10 16.09344 0 0
2:15 pm 14:15 Mostly Cloudy 57 13.8 46 8 68 68 N 6 9 29.94 1014 10 16.09344 0 0
2:35 pm 14:35 Mostly Cloudy 59 15.2 46 7.9 62 62 NNE 8 13 29.94 1014 10 16.09344 0 0
2:55 pm 14:55 Partly Cloudy 59 15.1 46 7.7 62 62 NNE 10 17 29.91 1013 10 16.09344 0 0
3:15 pm 15:15 Sunny 61 16.3 46 7.6 57 57 N 8 13 29.88 1012 10 16.09344 0 0
3:35 pm 15:35 Sunny 61 15.9 45 7.3 57 57 N 8 13 29.88 1012 10 16.09344 0 0
3:55 pm 15:55 Sunny 61 16.1 45 7.3 56 56 NE 8 13 29.88 1012 10 16.09344 0 0
4:15 pm 16:15 Sunny 62 16.5 45 7.4 55 55 N 6 9 29.88 1012 10 16.09344 0 0
4:35 pm 16:35 Sunny 62 16.7 45 7.4 54 54 N 7 11 29.88 1012 10 16.09344 0 0
4:55 pm 16:55 Sunny 62 16.7 45 7 53 53 N 7 11 29.88 1012 10 16.09344 0 0
5:15 pm 17:15 Sunny 62 16.7 45 7 53 53 N 7 11 29.91 1013 10 16.09344 0 0
5:35 pm 17:35 Sunny 61 16.3 44 6.8 54 54 N 7 11 29.88 1012 10 16.09344 0 0
5:55 pm 17:55 Sunny 61 16 44 6.6 54 54 NNE 7 11 29.91 1013 10 16.09344 0 0
6:15 pm 18:15 Sunny 60 15.5 44 6.6 56 56 N 9 15 29.94 1014 10 16.09344 0 0
6:35 pm 18:35 Sunny 58 14.5 44 6.5 59 59 N 9 15 29.94 1014 10 16.09344 0 0
6:55 pm 18:55 Sunny 56 13.3 43 6.2 62 62 NNE 8 13 29.94 1014 10 16.09344 0 0
7:15 pm 19:15 Clear 54 12.2 43 6 66 66 NNE 9 15 30 1016 10 16.09344 0 0
7:35 pm 19:35 Clear 53 11.5 43 5.9 69 69 N 9 15 30 1016 10 16.09344 0 0
7:55 pm 19:55 Clear 51 10.7 42 5.4 70 70 N 10 17 30 1016 10 16.09344 0 0
8:15 pm 20:15 Clear 49 9.7 41 5 73 73 NNE 12 19 30 1016 10 16.09344 0 0
8:35 pm 20:35 Clear 49 9.3 41 5 75 75 NNE 14 22 30 1016 10 16.09344 0 0
8:55 pm 20:55 Clear 48 9 41 5 76 76 N 13 20 30.06 1018 10 16.09344 0 0
9:15 pm 21:15 Partly Cloudy 47 8.5 41 5 79 79 NNE 17 28 30.09 1019 10 16.09344 0 0
9:35 pm 21:35 Mostly Cloudy 48 8.8 42 5.3 79 79 N 13 20 30.09 1019 10 16.09344 0 0
9:55 pm 21:55 Cloudy 48 8.8 40 4.4 74 74 N 17 28 30.09 1019 10 16.09344 0 0
10:15 pm 22:15 Cloudy 47 8.6 40 4.3 75 75 NNW 15 24 30.15 1021 10 16.09344 0 0
10:35 pm 22:35 Cloudy 47 8.3 39 3.7 73 73 NNW 12 19 30.15 1021 10 16.09344 0 0
10:55 pm 22:55 Cloudy 47 8.1 38 3.2 71 71 N 16 26 30.15 1021 10 16.09344 0 0
11:15 pm 23:15 Partly Cloudy 46 7.9 36 2.4 69 69 N 21 33 30.15 1021 10 16.09344 0 0
11:35 pm 23:35 Mostly Cloudy 45 7.3 35 1.8 68 68 NNE 17 28 30.12 1020 10 16.09344 0 0
11:55 pm 23:55 Mostly Cloudy with Light Rain 45 7 35 1.8 70 70 N 12 19 30.12 1020 10 16.09344 0 0

Powered by AerisWeather